{"data":{"norad_id":48121,"epoch":"2026-05-25T01:40:37.732224Z","epoch_age_seconds":59109,"freshness":"FRESH","line1":"1 48121U 21027AF  26145.06988116 -.00000243  00000+0  39342-5 0  9990","line2":"2 48121  53.1588 159.6959 0001208  86.5106 273.6033 15.31697996284351","mean_motion":15.31697996,"eccentricity":0.0001208,"inclination_deg":53.1588,"raan_deg":159.6959,"arg_perigee_deg":86.5106,"mean_anomaly_deg":273.6033,"bstar":3.9342e-6,"rev_number":28435,"period_min":94.013310963423,"perigee_km":469.91862398922,"apogee_km":471.57331411454,"semimajor_km":6848.8829690519,"source":"CELESTRAK","updated_at":"2026-05-25T13:38:16.646161Z"}}